OneWeb SL0241

operational
NORAD ID: 48773 Int'l Des: 2021-045 Owner: ONEWEBN Country: UK Constellation: oneweb
LEOCIRCULARPOLARONEWEB_TYPE

About OneWeb SL0241

Description loading...

Live Position

Loading 3D Globe...

Upcoming Passes

Altitude History

Altitude vs Time

uPlot chart will show altitude changes over time

Two-Line Element Set

1 48773U 21045G 26066.11641075 .00000168 00000-0 41310-3 0 9993
2 48773 87.8941 279.5912 0001888 96.8981 263.2364 13.15547649230915
Epoch: Mar 7, 2026 • Age: 16 hours

Current Status

Altitude 1203.7 km
Velocity 7.25 km/s
Sub-Earth Point 14.25°N, 120°W
Launch Date May 28, 2021
Age 4.7 years
Type internet

Technical Details

Classification Payload
Mass 148.00 kg
Dry Mass 140.00 kg
Total Mass 148.00 kg
Length 1.30 m
Diameter 1.00 m
Span 5.00 m
Shape Trapezoid+2 pan
Manufacturer ONEWUS
Bus Type ARROW
Phase Status In Orbit
Owner/State ONEWEBN/UK

Large Constellations

Loading constellations...